Content
SEND FEEDBACK

Daily
Averages
Monthly
Summary
French Polynesia

PAPEETE, FRENCH POLYNESIA


Home > Oceania > French Polynesia
Elevation: 2 meters     Latitude: 17 33S     Longitude: 149 36W

WEATHER
 
SELECT A DAY
Number of Records: 208,734;   Date Range: 6/30/96 - 8/31/14
 
SHARE

PRINT THIS DATA

[ ← Previous Day ]
WEATHER ALMANAC - 20 JULY, 2014
[ Next Day → ]
[ °F ]   °C
Weather ElementAverageHighLow
Temperature25.1 °C29 °C (1:00 pm)22 °C (2:30 am)
Dewpoint19.9 °C21 °C (11:00 am)18 °C (7:00 am)
Humidity72.4 %88 % (2:30 am)54 % (2:00 pm)
Barometer1014.9 hPa1016.3 hPa (12:30 am)1013.2 hPa (1:30 pm)
Wind Speed6.8 km/h13 km/h (1:30 pm)
Weather ElementAverage
Visibility13 km
Wind DirectionSE (140.4 °)

Weather ElementTotal
Precipitation---
Cooling Degree Days7.2 (Base 18.3)
Growing Degree Days15.5 (Base 10)
Averaged from 53 records on 20 July, 2014
WEATHER CONDITIONS BREAKOUT
WIND DIRECTION BREAKOUT
WEATHER BY HOUR - 20 JULY, 2014
[ °F ]   °C
Local TimeTemperatureDewpointHumidityBarometerVisibilityWind DirectionWind SpeedGust SpeedPrecipitationEventsConditions
12:30 AM23 °C20 °C83 %1016.3 hPa10 kmSSE (160°)7.4 km/hPartly Cloudy
1:00 AM23 °C20 °C83 %1015.2 hPa10 kmSSE (160°)7.4 km/hPartly Cloudy
1:30 AM23 °C20 °C83 %1015.2 hPa10 kmEast (100°)5.6 km/hPartly Cloudy
2:00 AM22.2 °C19.4 °C80 %1015.2 hPa19.3 kmSSE (150°)1.9 km/hScattered Clouds
2:00 AM23 °C20 °C83 %1015.2 hPa10 kmVariable1.9 km/hPartly Cloudy
2:30 AM22 °C20 °C88 %1014.2 hPa10 kmCalmPartly Cloudy
3:00 AM22 °C19 °C83 %1014.2 hPa10 kmVariable1.9 km/hPartly Cloudy
3:30 AM22 °C19 °C83 %1014.2 hPa10 kmVariable3.7 km/h
4:00 AM22 °C19 °C83 %1014.2 hPa10 kmSSE (150°)5.6 km/h
4:30 AM22 °C20 °C88 %1014.2 hPa10 kmVariable1.9 km/hPartly Cloudy
5:00 AM22.2 °C19.4 °C79 %1014.9 hPa59.5 kmESE (120°)3.7 km/hClear
5:00 AM22 °C19 °C83 %1014.2 hPa10 kmVariable3.7 km/h
5:30 AM22 °C19 °C83 %1014.2 hPa10 kmSE (140°)3.7 km/h
6:00 AM22 °C19 °C83 %1015.2 hPa10 kmSE (130°)5.6 km/hPartly Cloudy
6:30 AM22 °C19 °C83 %1015.2 hPa10 kmSSE (160°)7.4 km/hPartly Cloudy
7:00 AM22 °C18 °C78 %1015.2 hPa10 kmVariable3.7 km/hPartly Cloudy
7:30 AM23 °C19 °C78 %1015.2 hPa10 kmVariable3.7 km/hPartly Cloudy
8:00 AM25 °C18.9 °C61 %1016.3 hPa30.6 kmSSE (150°)1.9 km/hPartly Cloudy
8:00 AM25 °C19 °C69 %1016.3 hPa10 kmVariable1.9 km/hPartly Cloudy
8:30 AM26 °C20 °C69 %1016.3 hPa10 kmSSW (200°)7.4 km/hPartly Cloudy
9:00 AM27 °C20 °C65 %1016.3 hPa10 kmSW (230°)7.4 km/hPartly Cloudy
9:30 AM27 °C20 °C65 %1016.3 hPa10 kmSW (230°)9.3 km/hPartly Cloudy
10:00 AM27 °C20 °C65 %1016.3 hPa10 kmWSW (250°)7.4 km/hPartly Cloudy
10:30 AM28 °C20 °C62 %1015.2 hPa10 kmWSW (240°)7.4 km/hPartly Cloudy
11:00 AM27.8 °C20.6 °C56 %1015.6 hPa30.6 kmSW (220°)11.1 km/hScattered Clouds
11:00 AM28 °C21 °C66 %1015.2 hPa10 kmSW (220°)11.1 km/hPartly Cloudy
11:30 AM28 °C20 °C62 %1015.2 hPa10 kmSW (220°)9.3 km/hPartly Cloudy
12:30 PM28 °C20 °C62 %1014.2 hPa10 kmSW (230°)9.3 km/hPartly Cloudy
1:00 PM29 °C21 °C62 %1014.2 hPa10 kmSW (230°)11.1 km/hPartly Cloudy
1:30 PM29 °C21 °C62 %1013.2 hPa10 kmSW (220°)13 km/hPartly Cloudy
2:00 PM28.3 °C20.6 °C54 %1013.5 hPa30.6 kmSSW (210°)13 km/hScattered Clouds
2:00 PM29 °C21 °C62 %1013.2 hPa10 kmSSW (210°)13 km/hPartly Cloudy
2:30 PM29 °C20 °C58 %1013.2 hPa10 kmSSW (210°)9.3 km/hPartly Cloudy
3:30 PM29 °C21 °C62 %1013.2 hPa10 kmSSW (210°)9.3 km/hPartly Cloudy
4:00 PM28 °C21 °C66 %1013.2 hPa10 kmSW (220°)5.6 km/hPartly Cloudy
4:35 PM28 °C20 °C62 %1013.2 hPa10 kmSSW (210°)5.6 km/hPartly Cloudy
5:00 PM27.2 °C20 °C57 %1013.9 hPa30.6 kmSW (220°)3.7 km/hScattered Clouds
5:00 PM27 °C20 °C65 %1013.2 hPa10 kmVariable3.7 km/hPartly Cloudy
5:30 PM27 °C21 °C70 %1013.2 hPa10 kmSouth (190°)9.3 km/hScattered Clouds
6:00 PM26 °C21 °C74 %1014.2 hPa10 kmSouth (180°)11.1 km/hPartly Cloudy
6:30 PM26 °C21 °C74 %1014.2 hPa10 kmSouth (180°)13 km/hPartly Cloudy
7:00 PM26 °C21 °C74 %1014.2 hPa10 kmSouth (180°)13 km/hPartly Cloudy
7:30 PM25 °C20 °C74 %1015.2 hPa10 kmSouth (170°)9.3 km/hPartly Cloudy
8:00 PM25 °C20 °C67 %1015.2 hPa19.3 kmSouth (180°)11.1 km/hScattered Clouds
8:00 PM25 °C20 °C74 %1015.2 hPa10 kmSouth (180°)11.1 km/hPartly Cloudy
8:30 PM25 °C20 °C74 %1015.2 hPa10 kmSouth (170°)7.4 km/hPartly Cloudy
9:00 PM24 °C20 °C78 %1015.2 hPa10 kmSSE (160°)5.6 km/hPartly Cloudy
9:30 PM24 °C19 °C73 %1015.2 hPa10 kmCalmPartly Cloudy
10:00 PM24 °C19 °C73 %1015.2 hPa10 kmEast (90°)5.6 km/hPartly Cloudy
10:30 PM23 °C19 °C78 %1015.2 hPa10 kmEast (80°)5.6 km/hPartly Cloudy
11:00 PM23.3 °C19.4 °C73 %1014.9 hPa19.3 kmEast (80°)5.6 km/hScattered Clouds
11:00 PM23 °C20 °C83 %1014.2 hPa10 kmEast (80°)5.6 km/hPartly Cloudy
11:30 PM23 °C20 °C83 %1014.2 hPa10 kmESE (120°)1.9 km/hPartly Cloudy
Hourly data recorded from NTAA, located 0 kilometers away from Papeete, French Polynesia







STORIES FROM OUR PARTNERS